Wind_Speed
45 46 47 48 48 49 50 51 51 52 52 53 53 53 53 52 52 52 52 52 51 51 50 50 50 49 49 48 48 48 47 47 47 46 45 44 43 42 41 39 38 36 35
44 44 45 46 47 48 49 49 50 51 52 52 53 53 53 53 53 52 52 52 51 51 50 50 50 50 49 48 48 48 48 47 46 45 44 43 42 40 39 38 36 35 33
42 43 44 45 45 46 47 48 49 50 50 51 52 52 52 52 52 51 50 50 50 49 49 49 49 48 48 47 47 47 46 45 44 43 42 41 39 39 37 36 35 33 31
39 40 41 41 42 44 45 46 47 47 47 48 48 49 49 49 48 47 47 47 47 47 47 47 47 46 46 45 45 44 44 43 42 41 40 39 38 36 35 33 32 31 30
37 37 38 39 40 40 41 42 42 43 45 45 45 45 45 45 45 45 45 45 45 46 45 45 45 44 44 43 43 42 41 40 39 38 37 36 35 34 32 31 31 30 30
37 37 38 38 39 40 41 41 41 42 43 43 43 43 43 43 44 44 44 44 44 44 44 43 43 42 42 41 40 39 38 38 37 36 35 34 33 32 31 30 30 30 30
36 37 38 39 39 39 40 40 41 41 42 42 42 42 43 43 44 44 44 43 43 43 42 41 40 40 39 39 38 37 36 35 34 34 33 32 31 30 30 30 30 30 29
38 38 38 39 39 40 41 41 41 42 42 42 42 42 42 42 42 42 42 41 41 40 40 39 39 38 38 37 36 35 34 34 33 32 31 30 30 29 29 30 30 29 29
40 40 40 41 41 42 42 42 42 42 42 42 41 41 41 41 40 39 39 38 38 37 37 37 36 36 35 35 34 33 33 32 31 30 29 29 29 29 29 29 29 29 29
40 40 40 41 41 41 41 42 42 42 42 41 41 40 39 39 38 37 36 35 35 34 34 34 34 33 33 32 32 31 30 30 29 29 29 29 29 29 29 29 29 29 30
39 39 40 40 40 41 41 41 41 41 40 40 39 38 37 36 36 34 34 33 33 32 32 31 31 30 30 30 30 30 29 29 28 28 29 29 29 29 29 29 29 30 30
38 38 38 39 39 39 39 39 39 38 38 38 37 36 36 35 34 33 32 31 31 30 30 29 29 29 29 29 29 29 28 28 28 28 28 28 29 29 29 30 30 31 31
37 37 37 37 37 37 38 38 37 37 36 36 35 34 34 33 33 32 31 31 30 30 29 28 28 28 28 28 28 28 28 28 28 29 29 30 30 30 30 30 31 32 32
36 36 36 36 36 36 36 36 36 36 35 34 33 33 32 32 31 30 30 30 30 29 28 28 28 28 28 28 28 28 28 29 29 29 30 30 30 31 31 32 33 33 34
36 36 36 36 36 36 36 35 35 34 34 33 32 32 31 31 30 30 30 30 29 28 28 28 28 28 28 28 29 29 29 30 30 30 30 31 32 32 33 34 34 35 36
37 36 36 36 36 36 35 35 34 34 33 32 31 31 31 31 30 30 30 30 29 29 28 28 28 29 29 30 30 30 30 31 31 31 32 33 33 34 35 35 36 36 37
37 37 36 36 36 35 35 34 34 33 33 32 32 32 32 31 31 31 31 31 31 30 30 30 30 30 31 31 31 31 32 32 33 33 34 34 35 35 36 37 37 38 38
38 37 37 36 36 35 35 34 33 33 33 32 32 32 32 32 32 32 31 31 31 31 31 32 32 32 32 32 33 33 33 34 35 36 36 36 37 37 38 38 38 39 39
39 38 38 37 36 36 35 35 34 33 33 32 32 33 33 33 33 33 33 33 32 33 33 33 33 34 34 34 34 35 35 36 37 37 38 38 38 38 38 39 39 39 39
40 39 39 38 37 37 36 36 35 35 34 34 33 34 34 34 33 33 33 33 33 34 34 35 35 36 36 36 36 37 37 38 38 38 38 38 38 38 39 39 39 39 39
40 40 40 39 38 38 38 37 36 36 35 35 35 35 35 35 34 34 34 34 34 34 35 35 36 36 37 37 38 38 38 38 38 38 38 38 38 38 39 39 39 39 39
41 40 40 40 39 39 38 38 37 36 36 35 35 35 35 34 34 34 34 35 35 35 35 35 36 36 37 38 38 38 38 38 37 37 38 38 38 38 38 38 39 39 39
40 40 40 39 39 39 39 38 37 36 36 36 35 35 35 35 34 34 35 35 36 36 36 36 36 36 37 37 37 37 36 36 36 37 37 37 37 37 38 38 39 39 39
38 39 39 39 38 38 37 37 36 36 36 36 36 36 35 35 35 35 35 35 35 35 35 35 35 35 35 35 35 35 35 35 35 35 36 36 37 37 37 38 39 39 40
36 37 37 37 37 37 36 36 35 35 35 35 34 34 34 34 34 34 34 34 34 34 35 35 35 34 34 35 35 35 34 34 34 35 36 36 37 38 38 39 39 40 41
36 36 36 36 35 35 35 34 34 34 33 33 33 33 33 33 33 34 34 33 34 34 33 33 33 33 33 33 34 34 34 34 34 35 36 37 38 39 39 40 40 41 42
Wind_Direction
254 255 257 258 260 261 263 264 265 267 268 269 270 272 273 274 275 276 277 277 278 279 279 278 279 280 281 281 282 282 282 282 282 283 283 284 284 284 285 285 284 284 284
255 256 257 258 260 261 262 264 265 266 267 269 270 272 273 274 275 276 277 277 277 278 278 279 279 280 280 280 280 280 281 281 281 281 281 282 282 282 282 282 282 282 281
254 255 257 258 260 261 262 263 264 265 267 268 269 270 272 273 274 274 276 277 277 277 278 278 279 279 279 279 280 280 280 280 280 280 279 280 280 280 280 280 280 280 279
254 256 257 259 260 261 262 262 263 265 266 268 269 271 272 273 273 274 275 276 276 277 277 278 278 278 278 279 279 279 279 278 278 278 278 278 278 277 277 277 277 277 277
254 256 257 259 260 261 263 264 265 266 267 268 270 271 272 273 273 275 275 276 277 277 278 278 278 278 279 278 278 278 278 278 277 276 276 276 275 274 274 274 275 276 277
256 257 258 259 261 262 264 266 267 268 269 270 271 272 273 274 275 276 277 277 277 277 278 278 278 278 278 277 277 276 275 275 274 274 274 273 272 272 272 274 275 276 276
258 259 260 260 261 263 264 266 268 269 271 272 273 274 275 276 276 277 277 277 277 277 277 277 277 277 277 276 276 275 274 273 272 272 271 271 271 271 273 274 275 276 276
259 259 261 262 263 264 265 266 268 270 271 272 273 274 275 276 276 277 277 276 276 276 275 275 276 276 275 274 274 273 272 270 269 270 269 269 270 272 274 275 275 276 276
259 259 261 262 263 264 266 267 268 269 270 272 273 274 275 276 276 276 276 276 275 275 274 275 276 276 275 273 272 271 270 269 268 267 267 268 270 272 274 275 275 275 276
259 260 261 262 263 264 266 267 268 269 270 271 272 273 274 275 275 275 275 275 274 275 275 275 275 275 274 272 271 270 269 268 267 267 268 270 272 274 275 275 276 276 277
260 261 262 263 263 264 265 266 268 269 270 271 272 272 273 273 273 273 273 273 273 274 274 274 274 273 271 271 270 269 268 269 268 268 269 270 271 274 276 277 278 278 279
261 262 262 262 263 264 265 266 267 269 269 270 270 271 271 271 272 272 271 271 271 272 272 272 272 272 272 272 271 270 270 270 270 270 270 272 274 276 277 278 279 280 280
261 261 261 262 262 263 264 265 267 268 269 269 269 269 269 269 270 269 269 269 270 271 271 271 271 270 271 271 270 270 271 273 273 272 273 274 276 277 278 279 281 282 282
260 260 260 261 262 263 264 265 266 266 267 268 268 268 268 268 268 268 268 268 269 270 271 271 271 272 272 272 272 271 272 273 275 275 276 277 278 279 280 281 282 283 283
260 260 260 261 261 262 263 264 265 264 266 266 266 266 267 267 268 268 268 269 269 269 270 270 270 271 271 271 272 272 273 273 274 275 276 278 279 280 281 282 283 284 284
260 260 260 260 261 262 262 263 263 263 264 264 264 264 265 267 267 266 267 268 268 269 270 270 271 272 272 273 273 273 273 273 274 276 277 279 280 281 281 282 283 284 283
260 260 261 261 261 261 262 262 262 262 262 262 263 264 265 266 266 266 267 267 267 268 269 271 272 273 273 273 273 273 274 274 275 277 278 279 280 281 282 282 283 283 284
260 260 260 260 261 261 260 260 261 262 262 262 263 263 264 264 265 267 267 268 268 269 270 271 272 273 273 274 274 274 275 276 276 277 278 279 280 281 282 282 283 283 284
259 259 259 259 259 259 259 259 260 261 262 262 263 263 264 265 266 266 267 268 269 269 270 271 271 272 274 274 275 276 276 277 277 278 278 279 280 281 282 283 283 283 284
258 258 258 258 258 258 258 259 259 260 261 262 262 263 264 266 267 268 268 269 270 270 271 271 271 272 273 274 275 276 276 277 277 278 278 280 281 282 282 283 284 284 285
257 257 256 256 257 257 258 258 259 259 260 261 262 263 264 266 267 269 269 270 270 271 272 272 273 273 274 275 276 276 277 277 277 278 278 279 281 282 282 283 283 284 285
256 256 255 255 256 256 257 258 258 259 259 260 261 262 264 266 268 269 270 271 272 272 273 274 274 275 275 275 276 276 277 277 277 278 279 280 281 282 282 283 284 285 285
255 254 254 254 255 255 256 256 257 258 258 259 260 261 263 265 267 269 270 272 272 272 273 275 276 275 275 276 277 278 277 277 277 278 279 280 281 282 283 284 285 285 286
253 252 252 253 254 254 255 255 256 257 258 259 260 261 263 265 267 269 270 271 271 272 274 275 275 276 276 276 277 277 277 277 277 278 279 280 282 283 284 285 285 285 286
252 251 251 251 251 252 253 254 254 255 257 259 260 261 262 265 267 269 270 271 271 272 273 275 276 276 276 276 277 277 277 277 278 278 280 281 282 284 284 285 286 287 288
251 250 250 250 250 250 251 252 253 254 256 258 259 261 263 265 267 268 269 270 271 272 273 274 275 275 276 277 277 277 278 278 278 279 281 282 283 284 285 286 287 288 289
Height
5719 5721 5722 5723 5724 5724 5725 5725 5726 5726 5726 5726 5726 5725 5725 5724 5724 5723 5722 5722 5721 5719 5718 5717 5715 5714 5712 5711 5709 5707 5705 5703 5701 5699 5697 5695 5693 5691 5689 5687 5685 5684 5682
5708 5709 5710 5711 5712 5713 5713 5713 5713 5714 5714 5714 5713 5713 5712 5712 5711 5710 5710 5709 5708 5707 5705 5704 5703 5701 5700 5698 5696 5694 5692 5690 5689 5687 5685 5684 5682 5680 5679 5677 5676 5674 5673
5698 5699 5700 5700 5701 5701 5701 5701 5702 5702 5702 5701 5701 5700 5700 5699 5699 5698 5697 5696 5695 5694 5692 5691 5690 5688 5687 5685 5684 5682 5680 5678 5677 5676 5674 5673 5671 5670 5669 5667 5666 5665 5664
5687 5688 5689 5689 5690 5690 5690 5690 5690 5690 5689 5689 5688 5688 5688 5687 5686 5685 5685 5683 5682 5681 5680 5678 5677 5676 5674 5673 5671 5670 5668 5667 5665 5664 5663 5662 5661 5660 5659 5658 5657 5656 5655
5677 5678 5678 5679 5679 5679 5679 5679 5679 5678 5678 5677 5677 5676 5675 5675 5674 5673 5672 5671 5670 5669 5667 5666 5665 5664 5662 5661 5660 5658 5657 5656 5654 5653 5652 5652 5651 5650 5649 5648 5648 5647 5646
5667 5668 5668 5668 5669 5668 5668 5668 5667 5667 5666 5666 5665 5664 5664 5663 5662 5661 5660 5659 5658 5657 5655 5654 5653 5652 5650 5649 5648 5647 5646 5645 5644 5643 5642 5642 5641 5641 5640 5639 5639 5638 5638
5657 5657 5657 5658 5658 5657 5657 5657 5656 5656 5655 5655 5654 5653 5652 5651 5650 5649 5648 5647 5646 5645 5644 5643 5642 5640 5639 5638 5637 5636 5635 5634 5634 5633 5633 5632 5632 5631 5631 5631 5630 5629 5629
5646 5646 5647 5647 5646 5646 5646 5646 5645 5645 5644 5643 5643 5642 5641 5640 5639 5638 5636 5635 5634 5633 5632 5631 5631 5629 5628 5627 5626 5625 5625 5624 5624 5623 5623 5623 5623 5622 5622 5622 5621 5621 5620
5635 5635 5635 5635 5635 5635 5635 5635 5634 5634 5633 5632 5632 5631 5630 5629 5628 5626 5625 5624 5623 5622 5621 5621 5620 5619 5618 5617 5616 5616 5615 5615 5614 5614 5614 5614 5614 5613 5613 5613 5612 5612 5611
5623 5624 5624 5624 5624 5624 5623 5623 5623 5622 5622 5621 5620 5620 5619 5618 5617 5616 5615 5614 5613 5612 5611 5610 5610 5609 5608 5607 5607 5607 5606 5606 5606 5606 5605 5605 5605 5605 5604 5604 5603 5603 5602
5612 5612 5612 5612 5612 5612 5612 5612 5612 5611 5611 5610 5609 5609 5608 5607 5606 5606 5605 5604 5603 5602 5602 5601 5600 5600 5599 5599 5598 5598 5598 5597 5597 5597 5597 5597 5596 5596 5595 5595 5594 5594 5593
5601 5601 5601 5601 5601 5601 5601 5601 5600 5600 5600 5599 5599 5598 5598 5597 5596 5596 5595 5594 5594 5593 5593 5592 5592 5591 5591 5590 5590 5589 5589 5589 5589 5589 5588 5588 5588 5587 5586 5586 5585 5584 5583
5589 5589 5589 5589 5589 5589 5590 5590 5589 5589 5589 5588 5588 5588 5587 5587 5587 5586 5586 5585 5585 5584 5584 5583 5583 5582 5582 5582 5582 5581 5581 5581 5580 5580 5580 5579 5579 5578 5577 5576 5575 5574 5572
5577 5578 5578 5578 5578 5578 5578 5578 5578 5578 5578 5578 5578 5578 5577 5577 5577 5577 5576 5576 5576 5576 5575 5575 5574 5574 5574 5574 5573 5573 5573 5572 5572 5571 5571 5570 5569 5568 5567 5566 5565 5563 5562
5566 5566 5566 5567 5567 5567 5567 5567 5568 5568 5568 5568 5568 5568 5568 5568 5568 5568 5567 5567 5567 5567 5566 5566 5566 5566 5565 5565 5565 5564 5564 5563 5563 5562 5561 5560 5559 5558 5557 5556 5554 5552 5551
5554 5554 5555 5555 5555 5556 5556 5557 5557 5557 5557 5557 5557 5558 5558 5558 5558 5558 5558 5558 5558 5558 5558 5557 5557 5557 5556 5556 5556 5555 5554 5554 5553 5552 5551 5550 5549 5548 5546 5545 5543 5541 5539
5542 5542 5543 5543 5544 5545 5545 5546 5546 5546 5547 5547 5547 5548 5548 5548 5548 5548 5548 5548 5549 5549 5548 5548 5548 5547 5547 5546 5546 5545 5544 5544 5543 5542 5541 5540 5538 5537 5535 5533 5531 5529 5527
5529 5530 5531 5532 5533 5533 5534 5535 5535 5536 5536 5537 5537 5537 5538 5538 5538 5538 5538 5539 5539 5539 5539 5538 5538 5537 5537 5536 5535 5535 5534 5533 5532 5531 5530 5528 5527 5525 5523 5521 5519 5517 5515
5516 5517 5519 5520 5521 5522 5523 5523 5524 5525 5526 5526 5527 5527 5527 5528 5528 5528 5528 5529 5529 5529 5528 5528 5527 5527 5526 5525 5525 5524 5523 5522 5521 5519 5518 5516 5515 5513 5511 5509 5507 5505 5502
5503 5504 5506 5507 5508 5510 5511 5512 5513 5514 5515 5516 5516 5517 5517 5517 5518 5518 5518 5518 5518 5518 5517 5517 5516 5516 5515 5514 5513 5512 5511 5510 5509 5507 5506 5504 5503 5501 5499 5497 5494 5492 5490
5489 5491 5492 5494 5496 5497 5499 5500 5501 5503 5504 5505 5505 5506 5506 5506 5507 5507 5507 5507 5507 5507 5506 5506 5505 5504 5504 5503 5502 5501 5499 5498 5497 5495 5494 5492 5490 5488 5486 5484 5482 5480 5477
5475 5477 5479 5481 5483 5485 5486 5488 5489 5491 5492 5493 5494 5494 5495 5495 5496 5496 5496 5496 5495 5495 5495 5494 5493 5493 5492 5491 5490 5488 5487 5486 5484 5483 5481 5480 5478 5476 5474 5472 5470 5467 5465
5461 5463 5465 5468 5470 5472 5474 5475 5477 5479 5480 5481 5482 5483 5484 5484 5485 5485 5484 5484 5484 5483 5483 5482 5482 5481 5480 5479 5478 5476 5475 5474 5472 5471 5469 5468 5466 5464 5462 5459 5457 5454 5452
5446 5449 5452 5454 5457 5459 5461 5463 5465 5467 5468 5469 5470 5471 5472 5473 5473 5473 5473 5473 5472 5472 5471 5471 5470 5469 5468 5467 5466 5465 5463 5462 5461 5459 5457 5456 5454 5452 5449 5447 5444 5442 5439
5433 5436 5438 5441 5444 5446 5449 5451 5453 5455 5456 5457 5459 5460 5461 5461 5461 5461 5461 5461 5461 5461 5460 5459 5458 5458 5457 5456 5455 5453 5452 5450 5449 5447 5446 5444 5442 5440 5437 5435 5432 5429 5426
5420 5423 5425 5428 5431 5434 5436 5439 5441 5443 5444 5446 5447 5448 5449 5450 5450 5450 5450 5450 5450 5449 5449 5448 5447 5447 5446 5444 5443 5442 5441 5439 5438 5436 5434 5432 5430 5427 5425 5422 5419 5416 5413